Home > Weather > Allentown > Past weeks

Flag for USA Weather for the Past 2 Weeks in Allentown, Pennsylvania, USA

Now
55 °F

Overcast.


Feels Like: 53 °F
Forecast: 47 / 52 °F
Wind: 7 mph from South

Location: Lehigh Valley International Airport

Current Time: May 1, 2016 at 12:36:33 AM

Latest Report: Apr 30, 2016 at 11:51 PM


Visibility: 10 mi

Pressure: 30.20 "Hg

Humidity: 55%

Dew Point: 39 °F

Location of AllentownLocation

Historic Weather in Allentown — Graph

°F

Allentown Temperature Yesterday

Maximum temperature yesterday: 58 °F (at 1:51 PM)
Minimum temperature yesterday: 45 °F (at 2:04 AM)
Average temperature yesterday: 52 °F

High & Low Weather Summary for the Past Weeks

 TemperatureHumidityPressure
High82 °F (Apr 18, 4:51 PM)93% (Apr 28, 2:58 AM)30.48 "Hg (Apr 28, 2:58 AM)
Low35 °F (Apr 17, 5:51 AM)13% (Apr 20, 2:51 PM)29.59 "Hg (Apr 26, 3:51 PM)
Average57 °F52%30.07 "Hg
* Reported Apr 15 9:51 PM — Apr 30 9:51 PM, Allentown, Weather by CustomWeather, © 2016

Note: Actual official high and low records may vary slightly from our data, if they occured in-between our weather recording intervals... More about our weather records

Advertising

Allentown Weather History for the Previous 24 Hours

Scroll right to see more
 ConditionsComfort  
Time TempWeatherWind HumidityBarometerVisibility
9:51 PM
Sat, Apr 30
57 °FOvercast.5 mph55%30.20 "Hg10 mi
8:51 PM57 °FOvercast.3 mph55%30.20 "Hg10 mi
7:51 PM55 °FOvercast.No wind62%30.21 "Hg10 mi
6:51 PM56 °FOvercast.5 mph62%30.22 "Hg10 mi
5:51 PM57 °FOvercast.5 mph55%30.20 "Hg10 mi
4:51 PM57 °FOvercast.3 mph58%30.19 "Hg10 mi
3:51 PM58 °FOvercast.7 mph56%30.19 "Hg10 mi
2:51 PM58 °FOvercast.7 mph54%30.20 "Hg10 mi
1:51 PM58 °FOvercast.9 mph56%30.20 "Hg10 mi
12:51 PM56 °FOvercast.5 mph58%30.20 "Hg10 mi
11:51 AM57 °FPartly sunny.6 mph58%30.21 "Hg10 mi
10:51 AM54 °FOvercast.5 mph62%30.22 "Hg10 mi
9:51 AM51 °FOvercast.3 mph66%30.22 "Hg10 mi
8:51 AM49 °FOvercast.5 mph71%30.23 "Hg10 mi
7:51 AM48 °FMostly cloudy.5 mph74%30.22 "Hg10 mi
7:04 AM46 °FMore clouds than sun.No wind76%30.21 "Hg10 mi
5:51 AM46 °FOvercast.No wind73%30.19 "Hg10 mi
4:51 AM45 °FOvercast.3 mph76%30.15 "Hg10 mi
3:51 AM46 °FOvercast.No wind73%30.16 "Hg10 mi
2:51 AM45 °FOvercast.3 mph76%30.16 "Hg10 mi
2:04 AM45 °FOvercast.No wind76%30.15 "Hg10 mi
1:51 AM45 °FOvercast.No wind76%30.15 "Hg10 mi
12:51 AM46 °FOvercast.5 mph71%30.17 "Hg10 mi
Weather by CustomWeather, © 2016

See weather overviewHow to use our weather pages